{"data":{"norad_id":66917,"epoch":"2026-09-20T04:27:54.820224Z","epoch_age_seconds":139063,"freshness":"FRESH","line1":"1 66917U 25285C   26263.18605116 -.00000106  00000+0  39390-4 0  9993","line2":"2 66917  50.0022 165.3114 0000091 262.3653  97.7209 13.29327597 38696","mean_motion":13.29327597,"eccentricity":9.1e-6,"inclination_deg":50.0022,"raan_deg":165.3114,"arg_perigee_deg":262.3653,"mean_anomaly_deg":97.7209,"bstar":3.939e-5,"rev_number":3869,"period_min":108.32544237025,"perigee_km":1149.232043395,"apogee_km":1149.3690427583,"semimajor_km":7527.4375430766,"source":"CELESTRAK","updated_at":"2026-09-21T09:00:16.304440Z"}}